TimeCDT,TemperatureF,Dew PointF,Humidity,Sea Level PressureIn,VisibilityMPH,Wind Direction,Wind SpeedMPH,Gust SpeedMPH,PrecipitationIn,Events,Conditions,WindDirDegrees,DateUTC
12:15 AM,71.6,66.2,83,29.97,10.0,SW,3.5,-,N/A,,Mostly Cloudy,220,2013-05-22 05:15:00
12:35 AM,71.6,68.0,88,29.96,10.0,South,3.5,-,N/A,,Overcast,180,2013-05-22 05:35:00
12:55 AM,71.6,68.0,88,29.95,10.0,SSE,5.8,-,N/A,,Mostly Cloudy,160,2013-05-22 05:55:00
1:15 AM,71.6,66.2,83,29.95,10.0,SSE,4.6,-,N/A,,Scattered Clouds,150,2013-05-22 06:15:00
1:35 AM,71.6,66.2,83,29.94,10.0,SE,5.8,-,N/A,,Clear,140,2013-05-22 06:35:00
1:55 AM,71.6,66.2,83,29.94,10.0,SSE,5.8,-,N/A,,Clear,160,2013-05-22 06:55:00
2:15 AM,69.8,66.2,88,29.94,8.0,SSE,4.6,-,N/A,,Clear,160,2013-05-22 07:15:00
2:35 AM,71.6,66.2,83,29.93,10.0,SSE,3.5,-,N/A,,Clear,160,2013-05-22 07:35:00
2:55 AM,69.8,66.2,88,29.92,7.0,SSE,6.9,-,N/A,,Clear,160,2013-05-22 07:55:00
3:15 AM,69.8,66.2,88,29.93,7.0,South,3.5,-,N/A,,Clear,170,2013-05-22 08:15:00
3:35 AM,71.6,66.2,83,29.94,8.0,Calm,Calm,-,N/A,,Partly Cloudy,0,2013-05-22 08:35:00
3:55 AM,71.6,66.2,83,29.94,7.0,NNE,3.5,-,N/A,,Mostly Cloudy,30,2013-05-22 08:55:00
4:15 AM,71.6,68.0,88,29.94,8.0,NNW,4.6,-,N/A,,Overcast,340,2013-05-22 09:15:00
4:35 AM,71.6,66.2,83,29.95,10.0,NNW,6.9,-,N/A,,Overcast,330,2013-05-22 09:35:00
4:55 AM,69.8,62.6,78,29.97,10.0,NW,4.6,-,N/A,,Overcast,310,2013-05-22 09:55:00
5:15 AM,68.0,62.6,83,29.98,10.0,NNW,8.1,16.1,N/A,,Overcast,340,2013-05-22 10:15:00
5:35 AM,66.2,62.6,88,29.99,7.0,North,6.9,-,0.04,Thunderstorm,Overcast,360,2013-05-22 10:35:00
5:55 AM,66.2,62.6,88,30.00,6.0,North,8.1,-,0.04,Thunderstorm,Thunderstorm,350,2013-05-22 10:55:00
6:15 AM,66.2,62.6,88,29.99,8.0,ENE,3.5,-,N/A,,Mostly Cloudy,70,2013-05-22 11:15:00
6:35 AM,66.2,62.6,88,29.97,9.0,NE,5.8,-,N/A,,Overcast,50,2013-05-22 11:35:00
6:55 AM,66.2,62.6,88,29.99,10.0,Calm,Calm,-,N/A,,Mostly Cloudy,0,2013-05-22 11:55:00
7:15 AM,66.2,62.6,88,29.99,10.0,Calm,Calm,-,N/A,,Mostly Cloudy,0,2013-05-22 12:15:00
7:35 AM,66.2,62.6,88,30.01,10.0,SSW,3.5,-,N/A,Thunderstorm,Mostly Cloudy,200,2013-05-22 12:35:00
7:55 AM,66.2,62.6,88,30.00,10.0,West,4.6,-,N/A,,Overcast,280,2013-05-22 12:55:00
8:15 AM,66.2,62.6,88,30.01,10.0,Calm,Calm,-,N/A,,Overcast,0,2013-05-22 13:15:00
8:35 AM,66.2,62.6,88,30.02,9.0,SSW,3.5,-,N/A,Thunderstorm,Overcast,210,2013-05-22 13:35:00
8:55 AM,66.2,62.6,88,30.02,5.0,South,6.9,-,N/A,,Overcast,180,2013-05-22 13:55:00
9:15 AM,66.2,62.6,88,30.01,10.0,SE,9.2,-,N/A,,Overcast,140,2013-05-22 14:15:00
9:35 AM,66.2,62.6,88,30.00,10.0,SSE,12.7,-,N/A,,Overcast,160,2013-05-22 14:35:00
9:55 AM,66.2,62.6,88,29.92,10.0,SE,15.0,25.3,N/A,,Mostly Cloudy,140,2013-05-22 14:55:00
10:15 AM,66.2,62.6,88,29.95,10.0,SSE,12.7,19.6,N/A,,Partly Cloudy,160,2013-05-22 15:15:00
10:35 AM,66.2,62.6,88,29.96,10.0,ESE,9.2,-,N/A,,Scattered Clouds,110,2013-05-22 15:35:00
10:56 AM,68.0,64.4,88,29.97,10.0,SE,6.9,-,N/A,,Mostly Cloudy,140,2013-05-22 15:56:00
11:15 AM,69.8,64.4,83,29.98,10.0,SSE,5.8,-,N/A,,Scattered Clouds,160,2013-05-22 16:15:00
11:35 AM,69.8,64.4,83,29.97,10.0,SSE,9.2,-,N/A,,Partly Cloudy,160,2013-05-22 16:35:00
11:55 AM,71.6,64.4,78,29.97,10.0,South,6.9,-,N/A,,Partly Cloudy,180,2013-05-22 16:55:00
12:15 PM,71.6,64.4,78,29.98,10.0,South,5.8,-,N/A,,Clear,170,2013-05-22 17:15:00
12:35 PM,73.4,64.4,73,29.97,10.0,West,5.8,-,N/A,,Clear,270,2013-05-22 17:35:00
12:55 PM,73.4,64.4,73,29.97,10.0,WSW,6.9,-,N/A,,Clear,240,2013-05-22 17:55:00
1:15 PM,75.2,64.4,69,29.96,10.0,SW,5.8,-,N/A,,Partly Cloudy,230,2013-05-22 18:15:00
1:35 PM,77.0,66.2,69,29.95,10.0,Calm,Calm,-,N/A,,Clear,0,2013-05-22 18:35:00
1:55 PM,77.0,66.2,69,29.95,10.0,WNW,5.8,-,N/A,,Clear,300,2013-05-22 18:55:00
2:15 PM,75.2,66.2,73,29.95,10.0,WNW,3.5,-,N/A,,Partly Cloudy,290,2013-05-22 19:15:00
2:35 PM,77.0,66.2,69,29.95,10.0,WSW,3.5,-,N/A,,Partly Cloudy,250,2013-05-22 19:35:00
2:55 PM,77.0,66.2,69,29.94,10.0,West,5.8,-,N/A,,Partly Cloudy,280,2013-05-22 19:55:00
3:15 PM,78.8,68.0,69,29.94,10.0,West,4.6,-,N/A,,Partly Cloudy,270,2013-05-22 20:15:00
3:35 PM,78.8,66.2,65,29.93,10.0,West,3.5,-,N/A,,Scattered Clouds,260,2013-05-22 20:35:00
3:55 PM,80.6,66.2,61,29.93,10.0,West,6.9,-,N/A,,Scattered Clouds,280,2013-05-22 20:55:00
4:15 PM,78.8,66.2,65,29.93,10.0,WSW,4.6,-,N/A,,Partly Cloudy,240,2013-05-22 21:15:00
4:35 PM,78.8,66.2,65,29.93,10.0,SSW,4.6,-,N/A,,Scattered Clouds,210,2013-05-22 21:35:00
4:55 PM,80.6,66.2,61,29.93,10.0,SW,5.8,-,N/A,,Scattered Clouds,230,2013-05-22 21:55:00
5:15 PM,80.6,66.2,61,29.93,10.0,WSW,5.8,-,N/A,,Clear,240,2013-05-22 22:15:00
5:35 PM,80.6,68.0,65,29.93,10.0,SSW,3.5,-,N/A,,Clear,200,2013-05-22 22:35:00
5:55 PM,80.6,68.0,65,29.93,10.0,SSW,4.6,-,N/A,,Scattered Clouds,210,2013-05-22 22:55:00
6:15 PM,78.8,68.0,69,29.93,10.0,SW,5.8,-,N/A,,Mostly Cloudy,220,2013-05-22 23:15:00
6:35 PM,78.8,66.2,65,29.93,10.0,SW,8.1,-,N/A,,Partly Cloudy,220,2013-05-22 23:35:00
6:55 PM,77.0,66.2,69,29.94,10.0,SW,4.6,-,N/A,,Partly Cloudy,230,2013-05-22 23:55:00
7:16 PM,77.0,66.2,69,29.94,10.0,SW,3.5,-,N/A,,Scattered Clouds,220,2013-05-23 00:16:00
7:35 PM,75.2,66.2,73,29.94,10.0,Calm,Calm,-,N/A,,Partly Cloudy,0,2013-05-23 00:35:00
7:55 PM,73.4,66.2,78,29.95,10.0,Calm,Calm,-,N/A,,Clear,0,2013-05-23 00:55:00
8:15 PM,73.4,66.2,78,29.96,10.0,Calm,Calm,-,N/A,,Clear,0,2013-05-23 01:15:00
8:35 PM,71.6,66.2,83,29.96,10.0,Calm,Calm,-,N/A,,Clear,0,2013-05-23 01:35:00
8:55 PM,69.8,66.2,88,29.96,10.0,SSW,3.5,-,N/A,,Clear,200,2013-05-23 01:55:00
9:15 PM,69.8,66.2,88,29.96,10.0,Calm,Calm,-,N/A,,Clear,0,2013-05-23 02:15:00
9:35 PM,69.8,66.2,88,29.96,10.0,SSW,3.5,-,N/A,,Clear,200,2013-05-23 02:35:00
9:55 PM,69.8,66.2,88,29.97,10.0,SSW,3.5,-,N/A,,Clear,210,2013-05-23 02:55:00
10:15 PM,69.8,64.4,83,29.98,10.0,SSW,3.5,-,N/A,,Clear,200,2013-05-23 03:15:00
10:35 PM,69.8,64.4,83,29.98,10.0,SSW,3.5,-,N/A,,Clear,200,2013-05-23 03:35:00
10:55 PM,69.8,64.4,83,29.98,10.0,SSW,4.6,-,N/A,,Clear,210,2013-05-23 03:55:00
11:15 PM,69.8,64.4,83,29.98,10.0,SSW,4.6,-,N/A,,Clear,200,2013-05-23 04:15:00
11:35 PM,69.8,64.4,83,29.98,10.0,SSW,4.6,-,N/A,,Clear,200,2013-05-23 04:35:00
11:55 PM,69.8,64.4,83,29.98,10.0,SW,3.5,-,N/A,,Clear,220,2013-05-23 04:55:00